SPACEBEE-101 (48884 NORAD) Tracking and Keplerian Element Data

This shows tracking and keplerian element data for the satellite.

Feedback or suggestion? Click here.




ElementValue
Catalog48884
NameSPACEBEE-101
Epoch Orbit1394
Epoch Day269.07927886
Epoch Year2021
RAAN36.4963
Inclination97.5251
Eccentricity0.0007558
Argument of Perigee302.8553
Mean Anonmoly57.1949
Mean Motion15.12157998
Decay Rate3.107E-05
L11 48884U 21059F 21269.07927886 .00003107 00000-0 18386-3 0 9996
L22 48884 97.5251 36.4963 0007558 302.8553 57.1949 15.12157998 13945

Live tracking and technical data element details for SPACEBEE-101 (NORAD 48884). SPACEBEE-101 can be tracked NOW for your location showing map with azimuth and elevation plus other details from your city location.

Track the satellite on the map from your city or location and see movement details for azimuth, elevation, latitude, longitude, range, height, and movement on the map or in text.







IsCatalogInMostPopularTable: catalog: 48884, numindb: 15
Update: records affected: 1



GetName: 48884 SPACEBEE-101

Hit Count: updated at: Sun, 26 Sep 2021 14:55:30 GMT